Regional Weather Roundup
Issued by NWS Boston, MA

Home | Current Version | Previous Version | Text Only | Print | Product List | Glossary On
Versions: 1 2 3 4 5 6 7 8 9 10 11 12 13 14 15 16 17 18 19 20 21 22 23 24 25 26 27 28 29 30 31 32 33 34 35 36 37 38 39 40 41 42 43 44 45 46 47 48 49 50
000
ASUS41 KBOX 070010
RWRBOX

REGIONAL WEATHER ROUNDUP
NATIONAL WEATHER SERVICE TAUNTON MA
700 PM EST SAT FEB 06 2016

NOTE:  "FAIR" INDICATES FEW OR NO CLOUDS BELOW 12,000 FEET WITH NO
SIGNIFICANT WEATHER AND/OR OBSTRUCTIONS TO VISIBILITY.  THE FOLLOWING
OBSERVATION LOCATIONS DO NOT REPORT PRESENT WEATHER...PROVINCETOWN...
SMITHFIELD...BLOCK ISLAND...KEENE...AND OXFORD.

MAZALL-070100-
EASTERN MASSACHUSETTS

CITY           SKY/WX    TMP DP  RH WIND       PRES   REMARKS
BOSTON         PTCLDY    32  25  75 SW15      30.27S WCI  22
6HR MIN TEMP:  32; 6HR MAX TEMP:  35;

BEVERLY        CLEAR     31  23  72 SW9       30.26S WCI  23
LAWRENCE       CLEAR     31  24  75 S6        30.27S WCI  25
BEDFORD        PTCLDY    30  25  81 SW7       30.25  WCI  23
BLUE HILL        N/A     28  23  81 S15       30.23S WCI  16
NORWOOD        CLEAR     28  23  81 S5        30.28S WCI  23
MARSHFIELD     PTCLDY    32  28  86 SW8       30.30S WCI  25
PLYMOUTH       CLOUDY    31  26  82 SW6       30.29S WCI  25
TAUNTON          N/A     32  25  75 SW3       30.28S
NEW BEDFORD    PTCLDY    33  27  78 SW7       30.29S WCI  27
$$

MAZALL-070100-
CAPE COD AND THE ISLANDS

CITY           SKY/WX    TMP DP  RH WIND       PRES   REMARKS
FALMOUTH       CLOUDY    32  27  80 SW6       30.30S WCI  26
HYANNIS        CLOUDY    33  27  78 S6        30.29S WCI  28
CHATHAM        PTCLDY    32  28  85 SW9       30.31S WCI  24
PROVINCETOWN   CLOUDY    35  27  72 SW20      30.30S WCI  24
NANTUCKET      PTCLDY    37  28  70 SW16      30.32S WCI  28
MARTHAS VNYRD  CLOUDY    34  28  79 W3        30.30F
$$

MAZALL-070100-
CENTRAL AND WESTERN MASSACHUSETTS

CITY           SKY/WX    TMP DP  RH WIND       PRES   REMARKS
WORCESTER      CLEAR     27  21  78 S10       30.21F WCI  17
FITCHBURG      CLEAR     31  22  69 E6        30.25R WCI  25
ORANGE         CLEAR     30  20  66 S12       30.22S WCI  20
SPRINGFIELD    CLEAR     31  22  68 S13       30.23F WCI  22
WESTFIELD      CLEAR     31  21  66 S9        30.24S WCI  23
NORTH ADAMS    CLOUDY    37  17  44 CALM      30.19R
PITTSFIELD     CLOUDY    33  17  51 S8        30.16S WCI  26
$$

RIZALL-070100-
RHODE ISLAND

CITY           SKY/WX    TMP DP  RH WIND       PRES   REMARKS
PROVIDENCE     CLOUDY    31  24  75 SW7       30.30S WCI  24
6HR MIN TEMP:  31; 6HR MAX TEMP:  35;

NEWPORT        CLOUDY    34  27  75 VRB5      30.29S WCI  30
BLOCK ISLAND   CLOUDY    36  28  75 W13       30.29S WCI  27
SMITHFIELD     PTCLDY    28  23  80 SW5       30.25F WCI  23
WESTERLY       CLOUDY    35  26  69 SW6       30.30F WCI  30
$$

CTZALL-070100-
CONNECTICUT

CITY           SKY/WX    TMP DP  RH WIND       PRES   REMARKS
BRADLEY INTL   CLEAR     31  22  69 S9        30.26R WCI  23
6HR MIN TEMP:  31; 6HR MAX TEMP:  37;

HARTFORD       CLEAR     33  24  69 S7        30.28S WCI  27
BRIDGEPORT     PTCLDY    36  28  73 SW12      30.29S WCI  28
DANBURY        CLEAR     33  18  53 S6        30.27S WCI  28
GROTON         MOCLDY    36  28  73 SW12      30.30S WCI  28
NEW HAVEN      PTCLDY    36  27  69 SW7       30.28F WCI  30
CHESTER        FAIR      32  28  86 SW5       30.28F WCI  27
MERIDEN        CLOUDY    28  22  78 CALM      30.28F
WILLIMANTIC    PTCLDY    31  24  75 S3        30.29R
OXFORD         PTCLDY    30  18  59 SW5       30.26S WCI  25
$$

MEZ002-015-021-024-NHZ003-005-008-011-012-014-VTZ005-008-070100-
NORTHERN NEW ENGLAND

CITY           SKY/WX    TMP DP  RH WIND       PRES   REMARKS
PORTLAND ME    PTCLDY    32  25  75 SW10      30.22R WCI  24
6HR MIN TEMP:  32; 6HR MAX TEMP:  35;

BANGOR ME      MOCLDY    30  23  75 S8        30.17S WCI  22
CONCORD NH     CLOUDY    33  23  66 S9        30.22R WCI  25
MANCHESTER NH  PTCLDY    32  24  72 S10       30.22R WCI  24
NASHUA NH      CLEAR     30  25  80 VRB6      30.24S WCI  24
PORTSMOUTH NH  PTCLDY    31  24  75 SW10      30.23R WCI  22
JAFFREY NH     CLEAR     28  18  66 S7        30.19R WCI  21
KEENE NH       MOCLDY    28  19  69 CALM      30.22R
BURLINGTON VT  CLOUDY    37  21  52 SW12      30.12F WCI  29
MT. WASHINGTON SNOW       9   9 100 W44         N/A  VSB 0   WCI -18
$$

NYZ052-076-070100-
EASTERN NEW YORK

CITY           SKY/WX    TMP DP  RH WIND       PRES   REMARKS
ALBANY         CLOUDY    38  17  42 S6        30.20S
6HR MIN TEMP:  38; 6HR MAX TEMP:  42;

NEW YORK CITY  MOCLDY    39  19  44 SW9       30.29S
6HR MIN TEMP:  39; 6HR MAX TEMP:  40;

$$

ANZALL-070100-
MARINE OBSERVATIONS

STATION/POSITION TIME  TEMP    WIND        PRES    VSBY  WAVE
                       AIR SEA DIR/SP/G                  HT/PER
                 (UTC) (F)     (DEG/KT/KT) (MB)    (MI)  (FT/S)
BOSTON BUOY      2350   35 41  220/ 16/ 19 1025.0S         2/ 8
BUZZARDS BAY     2300          230/ 19/ 21 1026.5S
NANTUCKET SOUND  2350   38 40  250/ 14/ 16 1026.1S         1/ 3
MASS BAY-STELLWA 2304   36 43  210/ 17/ 23   N/A    1 7/8  4/ 4
ISLE OF SHOALS   0000   35     220/ 25/ 28 1023.1F
S OF BLOCK IS    NOT AVBL
$$

......................KEY.........................
  SKY/WX - SKY CONDITION/PRESENT WEATHER
  TMP    - TEMPERATURE IN FAHRENHEIT
  DWPT   - DEWPOINT IN FAHRENHEIT
  RH     - RELATIVE HUMIDITY IN PERCENT
  WIND   - DIRECTION AND SPEED IN MPH
  PRES   - MEAN SEA LEVEL PRESSURE IN INCHES OF HG
  WCI    - WIND CHILL INDEX
  VSB    - VISIBILITY IN MILES
  HX     - HEAT INDEX
  TC     - TEMPERATURE IN CELSIUS
  VRB    - VARIABLE WIND DIRECTION
  N/A    - NOT AVAILABLE



USA.gov is the U.S. government's official web portal to all federal, state and local government web resources and services.